| time (UTC) | temp F | wind direction | speed knots | gust knots | rain 1hr in | rain 24hr in | rain mn in | humidity % | barometer mb |
| 20260831163531 | 68 | 186 | 0.9 | 5.2 | 0.00 | 0.05 | 0.05 | 72 | 1004.1 |
| 20260831162527 | 69 | 189 | 0.9 | 2.6 | 0.00 | 0.05 | 0.05 | 71 | 1003.8 |
| 20260831161522 | 69 | 189 | 0.9 | 5.2 | 0.00 | 0.05 | 0.05 | 71 | 1003.9 |
| 20260831160522 | 69 | 219 | 2.6 | 7.0 | 0.00 | 0.05 | 0.05 | 70 | 1003.9 |
| 20260831155654 | 69 | 230 | 1.7 | 6.1 | 0.00 | 0.05 | 0.05 | 70 | 1003.8 |
| 20260831154529 | 69 | 217 | 1.7 | 5.2 | 0.00 | 0.05 | 0.05 | 70 | 1004.0 |
| 20260831153524 | 69 | 241 | 3.5 | 6.1 | 0.00 | 0.05 | 0.05 | 71 | 1004.0 |
| 20260831152519 | 69 | 198 | 1.7 | 3.5 | 0.00 | 0.05 | 0.05 | 71 | 1004.1 |
| 20260831151534 | 69 | 205 | 0.9 | 3.5 | 0.00 | 0.05 | 0.05 | 73 | 1004.1 |
| 20260831150529 | 69 | 233 | 3.5 | 8.7 | 0.00 | 0.05 | 0.05 | 73 | 1004.1 |
| 20260831145524 | 70 | 210 | 2.6 | 7.0 | 0.00 | 0.05 | 0.05 | 72 | 1004.1 |
| 20260831144520 | 68 | 196 | 1.7 | 5.2 | 0.00 | 0.05 | 0.05 | 75 | 1004.2 |
| 20260831143555 | 68 | 209 | 1.7 | 3.5 | 0.00 | 0.05 | 0.05 | 76 | 1004.1 |
| 20260831142531 | 67 | 193 | 1.7 | 5.2 | 0.00 | 0.05 | 0.05 | 76 | 1004.1 |
| 20260831141525 | 67 | 199 | 1.7 | 6.1 | 0.00 | 0.05 | 0.05 | 77 | 1004.1 |
| 20260831140520 | 68 | 204 | 2.6 | 7.8 | 0.00 | 0.05 | 0.05 | 76 | 1004.0 |
| 20260831135515 | 68 | 199 | 1.7 | 3.5 | 0.00 | 0.05 | 0.05 | 76 | 1004.1 |
| 20260831134530 | 68 | 225 | 2.6 | 7.0 | 0.00 | 0.05 | 0.05 | 75 | 1004.1 |
| 20260831133646 | 68 | 206 | 2.6 | 7.0 | 0.00 | 0.05 | 0.05 | 76 | 1004.0 |
| 20260831132522 | 69 | 200 | 2.6 | 7.0 | 0.00 | 0.05 | 0.05 | 74 | 1004.0 |
| 20260831131537 | 68 | 210 | 2.6 | 6.1 | 0.00 | 0.05 | 0.05 | 74 | 1003.8 |
| 20260831130533 | 70 | 228 | 3.5 | 8.7 | 0.00 | 0.05 | 0.05 | 70 | 1003.7 |
| 20260831125527 | 69 | 212 | 2.6 | 5.2 | 0.00 | 0.05 | 0.05 | 74 | 1003.7 |
| 20260831124522 | 70 | 202 | 2.6 | 5.2 | 0.00 | 0.05 | 0.05 | 72 | 1003.7 |
| 20260831123518 | 70 | 242 | 3.5 | 7.0 | 0.00 | 0.05 | 0.05 | 70 | 1003.7 |
| 20260831122533 | 70 | 238 | 3.5 | 7.0 | 0.00 | 0.05 | 0.05 | 70 | 1003.7 |
| 20260831121528 | 69 | 225 | 2.6 | 6.1 | 0.00 | 0.05 | 0.05 | 73 | 1003.9 |
| 20260831120543 | 69 | 217 | 2.6 | 7.8 | 0.00 | 0.05 | 0.05 | 74 | 1003.8 |
| 20260831115518 | 69 | 232 | 2.6 | 6.1 | 0.00 | 0.05 | 0.05 | 75 | 1003.8 |
| 20260831114533 | 67 | 205 | 1.7 | 7.0 | 0.00 | 0.05 | 0.05 | 80 | 1003.8 |
| 20260831113528 | 67 | 214 | 2.6 | 6.1 | 0.00 | 0.05 | 0.05 | 82 | 1003.7 |
| 20260831112543 | 69 | 237 | 3.5 | 7.8 | 0.00 | 0.06 | 0.05 | 79 | 1003.8 |
| 20260831111518 | 68 | 225 | 3.5 | 9.6 | 0.00 | 0.07 | 0.05 | 81 | 1003.6 |
| 20260831110559 | 67 | 232 | 2.6 | 6.1 | 0.00 | 0.08 | 0.05 | 83 | 1003.7 |
| 20260831105549 | 69 | 225 | 2.6 | 7.0 | 0.00 | 0.10 | 0.05 | 82 | 1003.7 |
| 20260831104544 | 67 | 209 | 1.7 | 3.5 | 0.00 | 0.10 | 0.05 | 85 | 1003.6 |
| 20260831103520 | 67 | 225 | 2.6 | 5.2 | 0.00 | 0.10 | 0.05 | 86 | 1003.6 |
| 20260831102555 | 65 | 236 | 2.6 | 3.5 | 0.00 | 0.10 | 0.05 | 88 | 1003.6 |
| 20260831101531 | 64 | 207 | 1.7 | 2.6 | 0.00 | 0.10 | 0.05 | 92 | 1003.7 |
| 20260831100530 | 63 | 223 | 1.7 | 5.2 | 0.00 | 0.10 | 0.05 | 96 | 1003.7 |
| 20260831095521 | 63 | 217 | 1.7 | 6.1 | 0.00 | 0.10 | 0.05 | 94 | 1003.7 |
| 20260831094518 | 64 | 230 | 2.6 | 6.1 | 0.00 | 0.10 | 0.05 | 91 | 1003.5 |
| 20260831093532 | 66 | 246 | 2.6 | 7.0 | 0.00 | 0.10 | 0.05 | 88 | 1003.4 |
| 20260831092527 | 66 | 211 | 1.7 | 2.6 | 0.00 | 0.10 | 0.05 | 88 | 1003.3 |
| 20260831091522 | 65 | 234 | 0.9 | 3.5 | 0.00 | 0.10 | 0.05 | 88 | 1003.4 |
| 20260831090519 | 64 | 214 | 1.7 | 2.6 | 0.00 | 0.10 | 0.05 | 91 | 1003.3 |
| 20260831085534 | 64 | 229 | 1.7 | 3.5 | 0.00 | 0.10 | 0.05 | 93 | 1003.3 |
| 20260831084550 | 64 | 209 | 0.9 | 1.7 | 0.00 | 0.10 | 0.05 | 94 | 1003.4 |
| 20260831083546 | 63 | 202 | 0.9 | 1.7 | 0.00 | 0.10 | 0.05 | 95 | 1003.3 |
| 20260831082521 | 63 | 191 | 0.0 | 0.9 | 0.00 | 0.10 | 0.05 | 94 | 1003.4 |
| 20260831081517 | 62 | 188 | 0.0 | 0.9 | 0.00 | 0.10 | 0.05 | 96 | 1003.3 |
| 20260831080533 | 62 | 176 | 0.0 | 0.9 | 0.00 | 0.10 | 0.05 | 97 | 1003.3 |
| 20260831075608 | 61 | 192 | 0.9 | 1.7 | 0.00 | 0.10 | 0.05 | 99 | 1003.3 |
| 20260831074523 | 60 | 192 | 0.0 | 0.9 | 0.00 | 0.10 | 0.05 | 99 | 1003.2 |
| 20260831073518 | 59 | 185 | 0.0 | 0.9 | 0.00 | 0.10 | 0.05 | 99 | 1003.4 |
| 20260831072533 | 59 | 197 | 0.9 | 1.7 | 0.00 | 0.10 | 0.05 | 99 | 1003.3 |
| 20260831071529 | 59 | 201 | 0.9 | 1.7 | 0.00 | 0.10 | 0.05 | 99 | 1003.2 |
| 20260831070545 | 59 | 219 | 0.0 | 1.7 | 0.00 | 0.10 | 0.05 | 99 | 1003.2 |
| 20260831065520 | 59 | 0.0 | 0.0 | 0.00 | 0.10 | 0.05 | 99 | 1003.1 | |
| 20260831064555 | 58 | 0.0 | 0.0 | 0.00 | 0.10 | 0.05 | 99 | 1003.0 | |
| 20260831063531 | 58 | 0.0 | 0.0 | 0.00 | 0.10 | 0.05 | 99 | 1003.0 | |
| 20260831062545 | 57 | 0.0 | 0.0 | 0.00 | 0.10 | 0.05 | 99 | 1003.1 | |
| 20260831061520 | 57 | 0.0 | 0.0 | 0.00 | 0.10 | 0.05 | 99 | 1003.1 | |
| 20260831060516 | 56 | 0.0 | 0.0 | 0.00 | 0.10 | 0.05 | 99 | 1003.0 | |
| 20260831055531 | 56 | 0.0 | 0.0 | 0.00 | 0.10 | 0.05 | 99 | 1003.0 | |
| 20260831054547 | 56 | 0.0 | 0.0 | 0.00 | 0.10 | 0.05 | 99 | 1002.7 | |
| 20260831053542 | 55 | 0.0 | 0.0 | 0.00 | 0.10 | 0.05 | 99 | 1002.8 | |
| 20260831052517 | 55 | 0.0 | 0.0 | 0.01 | 0.10 | 0.05 | 99 | 1002.7 | |
| 20260831051532 | 55 | 0.0 | 0.0 | 0.01 | 0.10 | 0.05 | 99 | 1002.8 | |
| 20260831050528 | 54 | 0.0 | 0.0 | 0.01 | 0.10 | 0.05 | 99 | 1002.8 | |
| 20260831045524 | 54 | 0.0 | 0.0 | 0.01 | 0.10 | 0.05 | 99 | 1002.8 | |
| 20260831044519 | 54 | 192 | 0.0 | 0.9 | 0.02 | 0.10 | 0.05 | 99 | 1002.7 |
| 20260831043534 | 54 | 0.0 | 0.0 | 0.02 | 0.10 | 0.05 | 99 | 1002.7 | |
| 20260831042530 | 54 | 0.0 | 0.0 | 0.01 | 0.09 | 0.04 | 99 | 1002.6 | |
| 20260831041525 | 54 | 0.0 | 0.0 | 0.02 | 0.09 | 0.04 | 99 | 1002.7 | |
| 20260831040522 | 54 | 215 | 0.9 | 1.7 | 0.02 | 0.09 | 0.04 | 99 | 1002.6 |
| 20260831035516 | 54 | 0.0 | 0.0 | 0.03 | 0.09 | 0.04 | 99 | 1002.5 | |
| 20260831034532 | 54 | 0.0 | 0.0 | 0.02 | 0.08 | 0.03 | 99 | 1002.6 | |
| 20260831033526 | 54 | 0.0 | 0.0 | 0.03 | 0.08 | 0.03 | 99 | 1002.5 | |
| 20260831032522 | 54 | 0.0 | 0.0 | 0.03 | 0.08 | 0.03 | 99 | 1002.5 | |
| 20260831031538 | 55 | 0.0 | 0.0 | 0.02 | 0.07 | 0.02 | 99 | 1002.5 | |
| 20260831030533 | 55 | 0.0 | 0.0 | 0.02 | 0.07 | 0.02 | 99 | 1002.6 | |
| 20260831025529 | 54 | 0.0 | 0.0 | 0.01 | 0.07 | 0.01 | 99 | 1002.8 | |
| 20260831024524 | 54 | 0.0 | 0.0 | 0.01 | 0.07 | 0.01 | 99 | 1002.6 | |
| 20260831023519 | 54 | 0.0 | 0.0 | 0.00 | 0.07 | 0.00 | 99 | 1002.7 | |
| 20260831022535 | 54 | 0.0 | 0.0 | 0.00 | 0.07 | 0.00 | 99 | 1002.7 | |
| 20260831021530 | 54 | 0.0 | 0.0 | 0.00 | 0.07 | 0.00 | 99 | 1002.9 | |
| 20260831020525 | 54 | 0.0 | 0.0 | 0.00 | 0.07 | 0.00 | 99 | 1002.9 | |
| 20260831015540 | 54 | 0.0 | 0.0 | 0.00 | 0.07 | 0.00 | 99 | 1002.9 | |
| 20260831014516 | 54 | 0.0 | 0.0 | 0.00 | 0.08 | 0.00 | 99 | 1002.8 | |
| 20260831013532 | 54 | 0.0 | 0.0 | 0.00 | 0.08 | 0.00 | 99 | 1002.8 | |
| 20260831012528 | 54 | 0.0 | 0.0 | 0.00 | 0.08 | 0.00 | 99 | 1002.8 | |
| 20260831011521 | 54 | 0.0 | 0.0 | 0.00 | 0.08 | 0.00 | 99 | 1002.8 | |
| 20260831010518 | 54 | 0.0 | 0.0 | 0.00 | 0.08 | 0.00 | 99 | 1002.9 | |
| 20260831005533 | 54 | 0.0 | 0.0 | 0.00 | 0.08 | 0.00 | 99 | 1002.9 | |
| 20260831004528 | 55 | 0.0 | 0.0 | 0.00 | 0.09 | 0.00 | 99 | 1002.8 | |
| 20260831003524 | 55 | 0.0 | 0.0 | 0.00 | 0.09 | 0.00 | 99 | 1002.9 | |
| 20260831002519 | 55 | 0.0 | 0.0 | 0.00 | 0.09 | 0.00 | 99 | 1002.8 | |
| 20260831001534 | 55 | 0.0 | 0.0 | 0.00 | 0.09 | 0.00 | 99 | 1002.8 | |
| 20260831000530 | 55 | 0.0 | 0.0 | 0.00 | 0.09 | 0.00 | 99 | 1002.9 | |
| 20260830235524 | 53 | 0.0 | 0.0 | 0.00 | 0.09 | 0.00 | 99 | 1002.9 | |
| 20260830234520 | 53 | 0.0 | 0.0 | 0.00 | 0.09 | 0.00 | 99 | 1003.0 | |
| 20260830233535 | 54 | 0.0 | 0.0 | 0.00 | 0.09 | 0.00 | 99 | 1002.8 | |
| 20260830232531 | 55 | 0.0 | 0.0 | 0.00 | 0.09 | 0.00 | 99 | 1002.8 | |
| 20260830231525 | 54 | 0.0 | 0.0 | 0.00 | 0.09 | 0.00 | 99 | 1002.8 | |
| 20260830230521 | 55 | 0.0 | 0.0 | 0.00 | 0.09 | 0.00 | 99 | 1002.8 | |
| 20260830225517 | 56 | 0.0 | 0.0 | 0.00 | 0.09 | 0.00 | 99 | 1002.8 | |
| 20260830224532 | 56 | 0.0 | 0.0 | 0.00 | 0.09 | 0.00 | 99 | 1002.8 | |
| 20260830223528 | 56 | 0.0 | 0.0 | 0.00 | 0.09 | 0.00 | 99 | 1002.8 | |
| 20260830222523 | 57 | 0.0 | 0.0 | 0.00 | 0.09 | 0.00 | 99 | 1002.8 | |
| 20260830221517 | 57 | 0.0 | 0.0 | 0.00 | 0.09 | 0.00 | 99 | 1002.9 | |
| 20260830220532 | 57 | 0.0 | 0.0 | 0.00 | 0.09 | 0.00 | 99 | 1002.8 | |
| 20260830215528 | 56 | 0.0 | 0.0 | 0.00 | 0.09 | 0.09 | 99 | 1002.8 | |
| 20260830214523 | 57 | 0.0 | 0.0 | 0.00 | 0.09 | 0.09 | 99 | 1002.8 | |
| 20260830213539 | 56 | 0.0 | 0.0 | 0.00 | 0.09 | 0.09 | 99 | 1002.8 | |
| 20260830212535 | 57 | 0.0 | 0.0 | 0.00 | 0.09 | 0.09 | 99 | 1002.8 | |
| 20260830211531 | 57 | 0.0 | 0.0 | 0.00 | 0.09 | 0.09 | 99 | 1002.9 | |
| 20260830210525 | 57 | 170 | 0.0 | 0.9 | 0.00 | 0.09 | 0.09 | 99 | 1002.7 |
| 20260830205520 | 58 | 0.0 | 0.0 | 0.00 | 0.09 | 0.09 | 99 | 1002.9 | |
| 20260830204516 | 58 | 0.0 | 0.0 | 0.00 | 0.09 | 0.09 | 99 | 1002.9 | |
| 20260830203531 | 58 | 0.0 | 0.0 | 0.00 | 0.09 | 0.09 | 99 | 1002.8 | |
| 20260830202527 | 59 | 0.0 | 0.0 | 0.00 | 0.09 | 0.09 | 99 | 1003.0 | |
| 20260830201522 | 59 | 192 | 0.0 | 0.9 | 0.00 | 0.09 | 0.09 | 99 | 1002.9 |
| 20260830200517 | 59 | 191 | 0.0 | 0.9 | 0.00 | 0.09 | 0.09 | 98 | 1002.9 |
| 20260830195533 | 60 | 160 | 0.0 | 0.9 | 0.00 | 0.09 | 0.09 | 98 | 1002.9 |
| 20260830194528 | 60 | 194 | 0.0 | 0.9 | 0.00 | 0.09 | 0.09 | 98 | 1002.9 |
| 20260830193524 | 59 | 194 | 0.0 | 0.9 | 0.00 | 0.09 | 0.09 | 98 | 1002.8 |
| 20260830192519 | 60 | 0.0 | 0.0 | 0.00 | 0.09 | 0.09 | 98 | 1002.9 | |
| 20260830191554 | 60 | 0.0 | 0.0 | 0.00 | 0.09 | 0.09 | 97 | 1002.9 | |
| 20260830190551 | 60 | 0.0 | 0.0 | 0.00 | 0.09 | 0.09 | 97 | 1003.0 | |
| 20260830185525 | 60 | 175 | 0.0 | 0.9 | 0.00 | 0.09 | 0.09 | 97 | 1003.0 |
| 20260830184601 | 60 | 0.0 | 0.0 | 0.00 | 0.09 | 0.09 | 96 | 1003.0 | |
| 20260830183516 | 61 | 181 | 0.0 | 0.9 | 0.00 | 0.09 | 0.09 | 96 | 1002.9 |
| 20260830182551 | 60 | 177 | 0.0 | 0.9 | 0.00 | 0.09 | 0.09 | 97 | 1002.9 |
| 20260830181547 | 61 | 0.0 | 0.0 | 0.00 | 0.09 | 0.09 | 98 | 1002.9 | |
| 20260830180522 | 61 | 0.0 | 0.0 | 0.00 | 0.09 | 0.09 | 97 | 1002.8 | |
| 20260830175516 | 62 | 0.0 | 0.0 | 0.00 | 0.09 | 0.09 | 96 | 1003.0 | |
| 20260830174532 | 62 | 0.0 | 0.0 | 0.00 | 0.09 | 0.09 | 95 | 1003.0 | |
| 20260830173527 | 63 | 0.0 | 0.0 | 0.00 | 0.09 | 0.09 | 93 | 1002.9 | |
| 20260830172522 | 63 | 0.0 | 0.0 | 0.00 | 0.09 | 0.09 | 92 | 1002.8 | |
| 20260830171518 | 63 | 0.0 | 0.0 | 0.00 | 0.09 | 0.09 | 91 | 1002.9 | |
| 20260830170534 | 64 | 0.0 | 0.0 | 0.00 | 0.09 | 0.09 | 90 | 1002.8 | |
| 20260830165609 | 64 | 0.0 | 0.0 | 0.00 | 0.09 | 0.09 | 89 | 1002.6 | |
| 20260830164523 | 64 | 0.0 | 0.0 | 0.00 | 0.09 | 0.09 | 87 | 1002.8 |